CW2927 Weather Reports


time (UTC)temp
F
wind
direction
speed
knots
gust
knots
rain 1hr
in
rain 24hr
in
rain mn
in
humidity
%
barometer
mb
20260905004705 67 349 1.7 5.2 0.00 0.00 0.00 82 1009.5
20260905004207 68 8 2.6 4.3 0.00 0.00 0.00 82 1009.5
20260905002705 68 349 1.7 4.3 0.00 0.00 0.00 83 1009.5
20260905002204 68 284 1.7 2.6 0.00 0.00 0.00 83 1009.4
20260905000704 69 280 0.0 0.0 0.00 0.00 0.00 82 1009.2
20260905000204 69 280 0.0 2.6 0.00 0.00 0.00 82 1009.3
20260904232705 69 267 2.6 4.3 0.00 0.01 0.00 80 1009.1
20260904232204 69 269 1.7 4.3 0.00 0.01 0.00 80 1009.1
20260904230705 70 269 1.7 5.2 0.00 0.01 0.00 79 1009.0
20260904230205 70 267 1.7 5.2 0.00 0.01 0.00 79 1009.0
20260904224705 70 271 2.6 7.0 0.00 0.01 0.00 78 1008.9
20260904224204 71 277 3.5 7.0 0.00 0.01 0.00 77 1009.0
20260904222705 71 282 4.3 7.8 0.00 0.01 0.00 77 1008.9
20260904222205 71 257 4.3 7.0 0.00 0.02 0.00 77 1008.9
20260904220205 71 271 2.6 4.3 0.00 0.03 0.00 77 1008.8
20260904214705 71 273 2.6 4.3 0.00 0.03 0.00 76 1008.7
20260904214204 72 276 1.7 8.7 0.00 0.03 0.00 75 1008.7
20260904212704 73 243 2.6 5.2 0.00 0.03 0.00 72 1008.8
20260904212204 74 272 2.6 7.8 0.00 0.03 0.00 71 1008.7
20260904210705 75 278 3.5 7.8 0.00 0.03 0.00 70 1008.8
20260904210204 75 277 4.3 7.8 0.00 0.03 0.00 70 1008.8
20260904204705 75 277 3.5 6.1 0.00 0.03 0.00 70 1008.9
20260904204204 75 287 3.5 7.0 0.00 0.03 0.00 69 1008.9
20260904202705 73 266 2.6 6.1 0.00 0.03 0.00 74 1009.0
20260904202204 73 286 2.6 8.7 0.00 0.03 0.00 73 1009.0
20260904200205 73 264 1.7 6.1 0.00 0.03 0.00 73 1009.0
20260904194704 73 271 2.6 6.1 0.00 0.03 0.00 72 1009.0
20260904194204 73 280 4.3 7.0 0.00 0.03 0.00 71 1009.0
20260904192705 73 318 3.5 6.1 0.00 0.03 0.00 70 1009.0
20260904192205 73 295 2.6 5.2 0.00 0.03 0.00 69 1009.0
20260904190705 74 280 2.6 4.3 0.00 0.03 0.00 68 1009.0
20260904190205 74 310 2.6 7.0 0.00 0.03 0.00 70 1009.0
20260904184705 74 316 1.7 2.6 0.00 0.03 0.00 70 1009.1
20260904182704 73 274 2.6 6.1 0.00 0.03 0.00 71 1009.3
20260904182204 73 289 3.5 7.0 0.00 0.03 0.00 70 1009.3
20260904180704 73 307 3.5 7.8 0.00 0.03 0.00 71 1009.2
20260904174705 73 288 2.6 5.2 0.00 0.03 0.00 72 1009.2
20260904174205 73 307 2.6 7.0 0.00 0.03 0.00 72 1009.1
20260904172704 73 281 4.3 7.0 0.00 0.03 0.00 71 1009.2
20260904164704 73 282 3.5 7.8 0.00 0.03 0.00 70 1009.1
20260904164205 73 264 3.5 10.4 0.00 0.03 0.00 71 1009.2
20260904162204 73 268 2.6 7.0 0.00 0.03 0.00 75 1009.3
20260904160704 72 277 4.3 7.8 0.00 0.03 0.00 74 1009.4
20260904160205 73 275 4.3 7.0 0.00 0.03 0.00 74 1009.5
20260904154704 74 336 1.7 4.3 0.00 0.03 0.00 73 1009.5
20260904154204 73 286 2.6 5.2 0.00 0.03 0.00 74 1009.6
20260904152704 72 269 1.7 4.3 0.00 0.03 0.00 76 1009.6
20260904150204 71 286 2.6 5.2 0.00 0.03 0.00 80 1009.7
20260904144704 69 282 1.7 2.6 0.00 0.03 0.00 84 1009.7
20260904144204 68 276 2.6 5.2 0.00 0.03 0.00 85 1009.8
20260904142705 68 282 2.6 5.2 0.00 0.03 0.00 86 1009.9
20260904142204 67 295 2.6 6.1 0.00 0.03 0.00 86 1009.9
20260904140704 67 291 2.6 5.2 0.00 0.03 0.00 87 1009.9
20260904140204 67 273 2.6 5.2 0.00 0.03 0.00 87 1009.9
20260904132704 65 266 2.6 2.6 0.00 0.03 0.00 95 1009.7
20260904132204 64 277 0.9 4.3 0.00 0.03 0.00 96 1009.7
20260904130704 64 288 1.7 2.6 0.00 0.03 0.00 97 1009.8
20260904130204 63 290 0.9 2.6 0.00 0.03 0.00 97 1009.8
20260904124704 63 305 2.6 2.6 0.00 0.03 0.00 97 1009.7
20260904124204 63 59 1.7 2.6 0.00 0.03 0.00 97 1009.7
20260904122704 62 66 0.9 1.7 0.00 0.03 0.00 97 1009.7
20260904120704 61 67 0.0 0.0 0.00 0.03 0.00 97 1009.7
20260904120204 61 67 0.0 1.7 0.00 0.03 0.00 96 1009.7
20260904114704 61 67 0.0 0.0 0.00 0.03 0.00 97 1009.7
20260904114204 60 67 0.0 1.7 0.00 0.03 0.00 96 1009.6
20260904112704 60 67 0.9 0.9 0.00 0.03 0.00 96 1009.5
20260904110704 59 67 0.0 1.7 0.00 0.03 0.00 96 1009.2
20260904110204 59 66 0.9 1.7 0.00 0.03 0.00 96 1009.2
20260904104704 59 66 0.0 0.0 0.00 0.03 0.00 96 1009.2
20260904104204 59 66 0.0 0.0 0.00 0.03 0.00 96 1009.1
20260904102704 59 66 0.0 0.0 0.00 0.03 0.00 96 1009.0
20260904102204 59 66 0.0 0.9 0.00 0.03 0.00 96 1009.1
20260904100704 58 66 0.0 0.0 0.00 0.04 0.00 96 1009.0
20260904100203 58 66 0.0 0.0 0.00 0.04 0.00 96 1009.0
20260904094704 58 66 0.0 0.0 0.00 0.04 0.00 96 1008.8
20260904092703 58 66 0.0 0.0 0.00 0.04 0.00 96 1008.7
20260904090704 58 66 0.0 0.9 0.00 0.04 0.00 96 1008.5
20260904084703 58 66 0.0 0.0 0.00 0.04 0.00 96 1008.6
20260904084203 58 66 0.0 0.0 0.00 0.04 0.00 96 1008.6
20260904082703 59 66 0.0 0.0 0.00 0.04 0.00 96 1008.6
20260904082203 59 66 0.0 0.9 0.00 0.05 0.00 96 1008.7
20260904080704 59 66 0.0 0.0 0.00 0.06 0.00 96 1008.7
20260904080203 59 66 0.9 1.7 0.00 0.06 0.00 96 1008.7
20260904074706 59 66 0.0 0.9 0.00 0.06 0.00 96 1008.5
20260904074206 59 66 0.9 1.7 0.00 0.06 0.00 96 1008.5
20260904072205 59 64 0.0 0.9 0.00 0.06 0.00 95 1008.4
20260904070705 60 64 0.0 0.0 0.00 0.06 0.00 96 1008.4
20260904062705 61 64 0.0 1.7 0.00 0.06 0.00 95 1008.5
20260904062206 61 64 0.9 1.7 0.00 0.06 0.00 96 1008.5
20260904060705 61 63 0.0 0.0 0.00 0.06 0.00 95 1008.7
20260904060205 61 63 0.0 0.9 0.00 0.06 0.00 95 1008.7
20260904054205 61 63 0.0 0.9 0.00 0.06 0.00 95 1008.8
20260904052205 61 63 0.9 0.9 0.00 0.06 0.00 95 1008.9
20260904050205 61 63 0.0 0.9 0.00 0.08 0.00 95 1009.0
20260904044705 61 63 0.0 0.9 0.00 0.09 0.00 95 1009.1
20260904042705 61 63 0.0 1.7 0.00 0.10 0.00 95 1009.1
20260904042205 61 63 0.9 2.6 0.00 0.10 0.00 95 1009.1
20260904040205 61 55 0.0 1.7 0.00 0.11 0.00 95 1009.4
20260904034205 62 55 0.0 1.7 0.00 0.11 0.11 94 1009.4
20260904032705 62 55 0.9 1.7 0.00 0.13 0.11 94 1009.4
20260904032205 62 55 0.9 0.9 0.00 0.13 0.11 94 1009.3
20260904030705 62 55 0.0 0.0 0.00 0.15 0.11 94 1009.3
20260904030205 63 55 0.0 1.7 0.00 0.16 0.11 94 1009.3
20260904024705 63 55 0.0 0.9 0.00 0.17 0.11 94 1009.3
20260904024205 63 55 0.0 0.9 0.00 0.18 0.11 93 1009.4
20260904022705 64 55 0.9 0.9 0.00 0.19 0.11 93 1009.5
20260904020705 64 55 0.9 1.7 0.00 0.20 0.11 93 1009.5
20260904014205 65 28 0.9 4.3 0.00 0.22 0.11 94 1009.6
20260904012705 65 47 1.7 2.6 0.00 0.23 0.11 94 1009.5
20260904012205 65 30 1.7 2.6 0.00 0.23 0.11 95 1009.4
20260904010705 66 47 0.0 0.0 0.00 0.23 0.11 94 1008.8
20260904010205 66 47 0.0 1.7 0.00 0.23 0.11 94 1008.7